PROFILE

 METAR AND TAF INFORMATION
ADDS - METARS form results

(1458 UTC 02 March 2021)
http://aviationweather.gov/metar/data/
 
FOOL 021430Z 21007KT 9999 FEW015 31/25 Q1007 NOSIG
FOOL 021400Z 21007KT 9999 FEW015 31/25 Q1007 NOSIG
TAF FOOL 021100Z 0212/0318 21008KT 9999 SCT011 FEW020CB BKN033 PROB30 TEMPO 0217/0223 TS 

 AIRPORT MAP

 RUNWAY INFORMATION
Runway 16 Runway length 9844 ft Runway width 148 ft
Runway elevation 29 ft Runway displaced threshold 0 ft Runway heading 154
Runway 34 Runway length 9844 ft Runway width 148 ft
Runway elevation 28 ft Runway displaced threshold 0 ft Runway heading 334

 AIRPORT FREQUENCIES
Type A/G Name A/G VOICE Frequency 655.9 MHZ
Type RDO Name LIBREVILLE Frequency 666.6 MHZ
Type TWR Name TWR Frequency 118.7 MHZ

 AIRPORT NEAR NAVIGATION AIDS
Type VOR-DME Name Libreville Frequency 112100 KHZ